Location: Mt. Cuba Astronomical Observatory
(39.8100°N, 75.6300°W)
Time: 16:52:56
(UTC-04:00)

Daily predictions for brighter satellites

Satellite Brightness Start Highest point End
(mag) Time Altitude Azimuth Time Altitude Azimuth Time Altitude Azimuth
NOAA 12 4.3 19:42:08 10° SSE 19:47:27 82° WSW 19:52:47 10° NNW
H-2A R/B 3.6 19:44:03 10° SE 19:47:31 31° ENE 19:51:01 10° N
Spot 2 Rocket 4.1 19:43:31 10° SE 19:48:09 37° ENE 19:52:49 10° N
Tiangong 1 1.4 19:48:21 10° WNW 19:51:15 52° SSW 19:54:05 10° SE
Abrixas 3.5 19:50:32 10° NW 19:53:08 31° NNE 19:55:43 10° E
Cosmos 1707 3.7 19:49:21 10° NNW 19:53:10 52° W 19:56:55 10° S
Cosmos 2082 Rocket 3.3 19:49:36 10° N 19:54:20 26° NE 19:59:00 10° ESE
Meteor 1-24 Rocket 3.7 19:48:50 10° N 19:54:22 75° E 20:00:04 10° SSE
Cosmos 1812 Rocket 3.6 19:50:31 10° S 19:54:55 88° ESE 19:59:21 10° N
Cosmos 1758 4.2 19:52:54 10° SSE 19:56:16 27° E 19:59:38 10° NNE
Lacrosse 5 2.1 19:51:23 10° SW 19:56:27 77° NW 20:01:33 10° NE
Cosmos 990 Rocket 4.2 19:51:28 10° SSW 19:56:44 82° WNW 20:02:00 10° NNE
Helios 1B rocket 3.8 19:54:19 10° NE 19:57:12 18° E 20:00:04 10° SE
FREGAT/IRIS 3.2 19:58:02 10° S 20:01:03 62° W 20:04:06 10° NNW
Cosmos 1821 Rocket 4.3 19:55:29 10° S 20:01:52 80° W 20:08:15 10° N
Lacrosse 4 Rocket 3.6 20:00:33 10° WSW 20:04:02 27° NW 20:07:33 10° N
Cosmos 1953 3.1 20:00:38 10° SSE 20:04:13 31° E 20:07:48 10° NNE
Envisat 4.3 20:02:47 10° ESE 20:06:23 21° ENE 20:10:06 10° NNE
GP-B 4.2 20:04:22 10° SE 20:07:56 24° E 20:11:30 10° NNE
USA 186 2.7 20:08:21 15° ENE 20:08:26 15° ENE 20:09:53 10° NNE
Helios 1A 4.0 20:06:49 10° SE 20:10:20 28° ENE 20:13:55 10° N
CZ-3 Stage 3 4.4 19:10:30 10° WSW 20:12:44 61° S 20:20:19 15° ESE
Cosmos 1271 Rocket 4.2 20:10:41 10° SE 20:13:32 19° E 20:16:25 10° NE
Resurs 01 Rocket 1.6 20:09:40 10° SSE 20:14:03 67° ENE 20:18:26 10° N
Cosmos 1125 Rocket 3.7 20:09:08 10° S 20:14:04 47° ESE 20:19:03 10° NNE
Cosmos 1766 3.7 20:11:56 10° SSW 20:15:46 66° W 20:19:39 10° N
Cosmos 1605 Rocket 4.0 20:13:42 10° S 20:19:57 79° E 20:26:19 10° N
Geosat 4.1 20:15:46 10° NE 20:20:39 50° ESE 20:25:31 10° S
Cosmos-2242 3.9 20:18:39 10° SSE 20:22:14 27° E 20:25:50 10° NNE
Lacrosse 5 rocket 3.0 20:22:09 10° NNW 20:25:00 19° NNE 20:26:41 15° ENE
Fregat R/B Cluster 11 4.4 20:19:39 10° SSW 20:26:47 65° ESE 20:30:15 10° NE
SeaSat 1 2.9 20:23:35 10° SSE 20:28:27 64° WSW 20:33:23 10° NNW
HJ-1C 4.5 20:25:20 10° S 20:28:36 47° W 20:31:56 10° NNW
Cosmos 1674 3.3 20:26:51 10° N 20:30:20 34° ENE 20:31:53 24° ESE
SAR-Lupe-4 3.7 20:31:34 19° SE 20:33:57 52° ENE 20:37:26 10° N
Cosmos 2123 Rocket 4.4 20:28:34 10° NNW 20:34:51 69° W 20:41:03 10° S
RESURS DK-1 4.1 20:35:53 10° NW 20:39:36 33° WSW 20:43:17 10° S
Cosmos 2344 4.4 20:34:34 10° SW 20:42:04 56° NW 20:50:37 10° NNE
CZ-2D R/B 3.4 20:38:55 10° S 20:42:46 76° WSW 20:46:41 10° NNW
Cosmos 1802 Rocket 4.4 20:37:42 10° SSE 20:43:16 38° E 20:48:54 10° NNE
BREEZE-M DEB (TANK) 4.3 20:42:40 10° NNW 20:44:09 15° NNE 20:44:41 14° NNE
Meteor 1-21 Rocket 4.2 20:38:43 10° N 20:44:35 75° E 20:50:28 10° SSE
Meteor 1-29 3.0 20:42:59 10° NNE 20:46:23 51° E 20:48:19 23° SSE
CZ-3B DEB 3.9 20:36:24 10° WSW 20:46:34 43° NW 20:51:27 10° NNE
Cosmos 1805 4.0 20:43:59 10° SSW 20:47:48 53° W 20:51:38 10° N
Cosmos 1818 3.6 20:45:36 10° NNW 20:51:04 82° WSW 20:54:41 22° SSE
GPS 2-05 Rocket1 3.7 20:47:59 10° SW 20:51:15 34° S 20:51:23 34° SSE
ALOS 4.2 20:48:06 10° SSW 20:52:13 30° W 20:56:20 10° NW
COSMOS 2487 2.3 20:48:52 10° NNW 20:52:26 71° ENE 20:53:16 48° SE
SAR-Lupe-1 3.9 20:51:15 32° SSE 20:52:47 81° ENE 20:56:23 10° N
Resurs 1-3 4.5 20:50:14 10° S 20:54:29 50° W 20:58:46 10° NNW
Cosmos 2061 Rocket 4.1 20:50:29 10° SSE 20:56:40 56° E 21:02:56 10° NNE
Cosmos 1269 Rocket 3.9 20:52:04 10° NNW 20:57:23 88° E 21:00:49 22° SSE
Meteor 1-4 Rocket 3.6 20:55:53 10° SSW 20:59:13 44° WNW 21:02:34 10° N
Timation 2 Rocket 3.9 20:56:08 10° NNW 21:02:27 73° ENE 21:05:26 32° SE
Cosmos 1833 Rocket 2.6 20:57:13 10° NNW 21:02:52 80° ENE 21:05:39 31° SSE
Cosmos 1470 2.6 21:00:38 16° S 21:03:46 81° E 21:07:45 10° N
Cosmos 1408 Rocket 3.6 21:00:38 10° N 21:05:07 82° W 21:07:46 24° S
Cosmos 2278 Rocket 4.1 21:02:55 10° WSW 21:07:53 31° WNW 21:12:54 10° N
Cosmos 372 Rocket 4.2 21:06:38 10° SSW 21:11:43 68° WNW 21:16:51 10° NNE
CZ-4B DEB 3.1 21:12:04 61° WNW 21:12:04 61° WNW 21:14:53 10° NNW
Cosmos 1340 Rocket 2.6 21:08:04 10° N 21:12:06 73° E 21:12:10 73° E
Cosmos 1733 3.2 21:10:59 30° SSW 21:12:48 81° W 21:16:42 10° N
Cosmos 1459 Rocket 3.9 21:07:21 10° S 21:13:38 82° E 21:19:50 10° N
USA 215 3.1 21:11:00 10° NE 21:17:32 73° SE 21:24:02 10° SW
ATLAS 5 CENTAUR R/B 1.8 21:14:23 10° SW 21:19:02 77° NW 21:24:08 10° NNE
Cosmos 2173 Rocket 3.9 21:13:14 10° S 21:19:23 89° ESE 21:25:41 10° N
ISS -2.2 21:16:44 10° SW 21:18:25 28° SW 21:18:25 28° SW
Cosmos 158 Rocket 4.2 21:15:19 10° NNW 21:20:26 69° WSW 21:22:45 33° S
Helios 1B rocket 4.1 21:28:51 10° N 21:32:35 33° WNW 21:36:17 10° SW
Meteor 1-11 4.2 21:31:26 10° N 21:36:36 59° ENE 21:36:36 59° ENE
Cosmos 494 Rocket 4.2 21:32:52 10° NNW 21:37:20 56° NE 21:37:20 56° NE
Cosmos 2082 Rocket 3.1 21:33:13 10° NW 21:38:36 46° WSW 21:41:10 28° SSW
Lacrosse 5 4.3 21:36:32 10° WNW 21:40:10 19° NNW 21:43:50 10° NNE
SPOT 5 3.8 21:45:02 42° NNE 21:45:02 42° NNE 21:49:00 10° N
Meteor 2-17 Rocket 4.4 21:40:14 26° S 21:43:56 83° W 21:50:07 10° N
Envisat 3.9 21:42:59 30° SSW 21:45:04 46° W 21:49:57 10° NNW
Cosmos 1939 Rocket 3.9 21:45:32 43° W 21:45:36 43° W 21:49:35 10° NNW
Meteor 1-16 Rocket 4.2 21:44:17 53° S 21:45:46 89° WNW 21:51:43 10° N
MetOp-A 4.4 21:50:03 59° NNE 21:50:03 59° NNE 21:54:33 10° N
USA 267 4.1 21:48:09 34° NE 21:49:27 37° NNE 21:55:20 10° NW
ARGOS 4.0 21:51:33 39° NNE 21:51:33 39° NNE 21:55:16 10° N
H-2A R/B 3.7 21:52:51 24° NNE 21:52:51 24° NNE 21:55:23 10° N
Cosmos 2016 Rocket 4.1 21:47:02 22° SSW 21:51:11 72° W 21:57:21 10° N
Cosmos 1725 Rocket 3.8 21:59:08 85° SSW 21:59:19 89° WNW 22:05:33 10° N
Terra 4.3 22:04:46 12° NNE 22:04:46 12° NNE 22:05:11 10° NNE
ERS-1 Rocket 3.5 22:03:21 56° W 22:03:21 56° W 22:07:58 10° NNW
Lacrosse 5 rocket 3.4 22:00:46 10° NW 22:02:25 23° NW 22:02:25 23° NW
Tsikada Rocket 4.1 22:11:43 10° N 22:17:28 70° WNW 22:17:28 70° WNW
USA 215 4.4 22:54:18 10° NE 23:00:13 38° NNW 23:06:07 10° W
